DW3383 Weather Reports


Display with metric or nautical units.
time (UTC)temp
F
wind
direction
speed
MPH
gust
MPH
rain 1hr
in
rain 24hr
in
rain mn
in
humidity
%
barometer
mb
20260903050806 47 324 1.0 3.0 0.00 0.10 0.00 95 1013.1
20260903050305 47 259 1.0 7.0 0.00 0.10 0.00 96 1013.1
20260903040805 51 271 3.0 5.0 0.00 0.10 0.00 77 1011.9
20260903030805 52 279 3.0 5.0 0.00 0.10 0.00 78 1010.7
20260903020805 53 285 1.0 3.0 0.00 0.10 0.00 70 1009.4
20260903010805 58 355 0.0 3.0 0.00 0.10 0.00 62 1008.2
20260903010305 58 316 1.0 3.0 0.00 0.10 0.00 60 1008.1
20260903000805 56 19 0.0 2.0 0.00 0.15 0.00 63 1007.8
20260903000306 56 347 1.0 3.0 0.00 0.15 0.00 62 1007.8
20260902230805 58 343 2.0 3.0 0.00 0.20 0.00 67 1007.4
20260902230305 58 24 0.0 5.0 0.00 0.20 0.00 59 1007.3
20260902220804 56 309 0.0 0.0 0.00 0.20 0.00 63 1007.2
20260902220305 55 307 0.0 2.0 0.00 0.20 0.00 65 1007.2
20260902210805 54 3 0.0 1.0 0.00 0.20 0.00 72 1006.9
20260902200305 53 32 0.0 5.0 0.00 0.20 0.00 74 1006.8
20260902190805 52 118 0.0 0.0 0.00 0.20 0.00 80 1007.0
20260902190305 51 118 1.0 6.0 0.00 0.20 0.00 78 1007.0
20260902180806 49 274 5.0 6.0 0.00 0.20 0.00 85 1007.3
20260902180305 49 296 3.0 6.0 0.00 0.20 0.00 83 1007.4
20260902170805 47 34 0.0 0.0 0.00 0.20 0.00 93 1007.4
20260902170306 47 34 0.0 5.0 0.00 0.20 0.00 88 1007.4
20260902160805 44 263 3.0 3.0 0.00 0.20 0.00 99 1007.4
20260902160304 44 268 2.0 5.0 0.00 0.20 0.00 99 1007.4
20260902150805 43 271 3.0 5.0 0.00 0.20 0.00 99 1007.4
20260902150306 43 259 3.0 5.0 0.00 0.20 0.00 99 1007.4
20260902140804 43 267 5.0 5.0 0.00 0.20 0.00 99 1007.3
20260902140305 43 273 5.0 5.0 0.00 0.20 0.00 98 1007.3
20260902130804 43 275 5.0 5.0 0.00 0.20 0.00 98 1007.2
20260902130305 43 275 5.0 5.0 0.00 0.20 0.00 99 1007.2
20260902120805 43 275 3.0 5.0 0.00 0.20 0.00 98 1007.0
20260902120305 43 275 3.0 5.0 0.00 0.20 0.00 98 1007.0
20260902110804 44 270 3.0 5.0 0.00 0.20 0.00 98 1006.9
20260902110305 44 272 3.0 5.0 0.00 0.20 0.00 98 1006.9
20260902100306 45 271 3.0 5.0 0.00 0.20 0.00 98 1006.8
20260902090805 45 269 2.0 3.0 0.00 0.20 0.00 98 1006.7
20260902090306 45 268 2.0 3.0 0.00 0.20 0.00 98 1006.7
20260902080805 46 258 2.0 2.0 0.00 0.20 0.00 98 1006.6
20260902080305 46 261 2.0 3.0 0.00 0.20 0.00 98 1006.7
20260902070813 46 252 2.0 2.0 0.10 0.20 0.00 98 1006.5
20260902070305 46 253 2.0 3.0 0.10 0.20 0.00 98 1006.5
20260902060306 46 249 2.0 3.0 0.00 0.10 0.10 98 1006.6